Regional Weather Roundup
Issued by NWS

Home | Current Version | Previous Version | Graphics & Text | Print | Product List | Glossary On
Versions: 1 2 3 4 5 6 7 8 9 10 11 12 13 14 15 16 17 18 19 20 21 22 23 24 25 26 27 28 29 30 31 32 33 34 35 36 37 38 39 40 41 42 43 44 45 46 47 48 49 50
000
ASUS43 KFSD 122310
RWRSD

WEATHER ROUNDUP FOR SOUTH DAKOTA
NATIONAL WEATHER SERVICE SIOUX FALLS SD
500 PM CST TUE DEC 12 2017

NOTE: "FAIR" INDICATES FEW OR NO CLOUDS BELOW 12,000 FEET WITH NO
SIGNIFICANT WEATHER AND/OR OBSTRUCTIONS TO VISIBILITY.


SDZ001>005-009-010-012>017-130000-
NORTHWEST AND NORTH CENTRAL SOUTH DAKOTA

CITY           SKY/WX    TMP DP  RH WIND       PRES   REMARKS
BUFFALO          N/A     51  21  30 W21       29.81F
FAITH            N/A     54  22  28 W14       29.84F
MOBRIDGE       CLEAR     50  29  44 W7        29.76F
$$

SDZ012>016-024>037-041>051-057-063-072>074-130000-
SOUTHWEST AND SOUTH CENTRAL SOUTH DAKOTA

CITY           SKY/WX    TMP DP  RH WIND       PRES   REMARKS
RAPID CTY ARPT CLEAR     53  14  21 S5        29.93F
PIERRE         CLEAR     50  27  40 W6        29.84F
CUSTER         CLEAR     51   4  14 NW8       30.03F
ELLSWORTH AFB  CLEAR     54  14  20 SW3       29.92F
PHILIP         CLEAR     54  21  27 W9        29.88F
PINE RIDGE     CLEAR     54  22  28 W8        29.97F
SPEARFISH      FAIR      55   9  15 W10       29.96F
WINNER         FAIR      53  20  27 W7        29.90F
$$

SDZ004>011-016>023-039-040-130000-
NORTHEAST SOUTH DAKOTA

CITY           SKY/WX    TMP DP  RH WIND       PRES   REMARKS
ABERDEEN       CLEAR     36  25  64 SW9       29.78F
WATERTOWN      CLEAR     36  29  75 S10       29.80F
BROOKINGS      CLEAR     36  28  73 SW8       29.85F
SISSETON         N/A     42  29  59 SW15G24   29.73F
$$

SDZ017-020-022-023-036>040-048>070-130000-
SOUTHEAST SOUTH DAKOTA

CITY           SKY/WX    TMP DP  RH WIND       PRES   REMARKS
SIOUX FALLS    PTCLDY    39  30  70 SW6       29.90F
HURON          CLEAR     43  25  49 SW10      29.83F
CHAMBERLAIN    CLEAR     48  22  36 W5        29.87F
MITCHELL       CLEAR     45  29  53 SW12      29.88F
YANKTON        CLEAR     42  27  55 SW10      29.91F
$$

ABBREVIATIONS USED IN REMARKS
   TC - TEMPERATURE IN CELSIUS
  WCI - WIND CHILL INDEX
   HX - HEAT INDEX
  VSB - VISIBILITY





USA.gov is the U.S. government's official web portal to all federal, state and local government web resources and services.